Location: Newark
(34.1333°N, 7.9667°W)
Time: 15:18:49
(UTC+00:00)

S-56A Canister/Altair - Pass Details

Date: 08 December 2021
Orbit: 634 x 2499 km, 38.9° (Epoch: 25 January)

Event Time Altitude Azimuth Distance (km) Brightness Sun altitude
Rises 22:17:16 0° 238° (WSW) 6,039 12.4 -60.1°
Reaches altitude 10° 22:21:29 10° 237° (WSW) 4,886 11.8 -60.9°
Enters shadow 22:25:06 21° 236° (SW) 3,881 11.1 -61.6°
